Regional Weather Roundup
Issued by NWS Pendleton, OR

Home | Current Version | Previous Version | Text Only | Print | Product List | Glossary On
Versions: 1 2 3 4 5 6 7 8 9 10 11 12 13 14 15 16 17 18 19 20 21 22 23 24 25 26 27 28 29 30 31 32 33 34 35 36 37 38 39 40 41 42 43 44 45 46 47 48 49 50
000
ASUS46 KPDT 021125
RWRPDT
PENDLETON REGIONAL WEATHER ROUNDUP
NATIONAL WEATHER SERVICE PENDLETON OREGON
400 AM PDT TUE JUN 2 2015

NOTE: FAIR INDICATES FEW OR NO CLOUDS BELOW 12,000 FEET WITH NO
SIGNIFICANT WEATHER AND/OR OBSTRUCTIONS TO VISIBILITY.

# INDICATES UNOFFICIAL STATION AND DATA

WAZ520-021210-
EAST SLOPES OF WASHINGTON CASCADES

CITY            SKY/WX      TMP DP  RH  WIND    PRES   REMARKS
#BULLFROG 2SW   N/A         49  43  80  W1      27.52S
#BUMPING DAM    N/A         49  N/A N/A S2      N/A
#CLE ELUM HS    N/A         52  44  74  W8      29.85R
#CLE ELUM LAKE  N/A         50  44  80  CALM    29.81R
#CLIFFDEL 2NW   N/A         48  43  83  N3      N/A
#GLENWOOD       N/A         51  45  80  S7      29.90R
#NELSON         N/A         53  45  74  NW1     29.86R
#NELSON 3SW     N/A         50  44  80  CALM    30.03R
#NILE           N/A         53  45  74  CALM    29.12F
#RONALD 2NW     N/A         54  31  41  N2      29.79R
#SNOWDEN        N/A         47  39  74  NW1     N/A
#TEANAWAY 4NE   N/A         53  48  83  CALM    N/A
#TROUT LAKE 1NE N/A         49  45  86  CALM    29.93R
$$

WAZ521-021210-
SIMCOE HIGHLANDS

CITY            SKY/WX      TMP DP  RH  WIND    PRES   REMARKS
#BICKLETON HS   N/A         48  39  71  W10     N/A
#CENTERVILLE 4W N/A         51  44  77  W16     29.70R
#CENTERVILLE 1SWN/A         50  43  77  W13     29.89S
#GOLDENDALE     N/A         52  45  77  W10     N/A
#GOODNOE HILLS  N/A         54  46  74  SW17    N/A
#LYLE 6NE       N/A         51  46  83  SW7     29.91R
$$

WAZ026-021210-
KITTITAS VALLEY

CITY            SKY/WX      TMP DP  RH  WIND    PRES   REMARKS
ELLENSBURG AP   MOCLDY      56  45  66  NW15    29.86S
YTC-OPS AREA    N/A         49  43  80  W26G33  29.82S WCI 41
#ELLENSBURG CWU N/A         55  46  72  NW6     29.77R
#ELLENSBURG 3NE N/A         54  46  74  W7      29.87R
#ELLENSBURG 1E  N/A         55  43  64  CALM    N/A
#KITTITAS 4N    N/A         53  45  74  N10     28.17R
#KITTITAS 3S    N/A         53  46  77  W5      29.80R
#THORP 6N       N/A         51  44  77  W23G37  29.82S
$$

WAZ027-021210-
YAKIMA VALLEY

CITY            SKY/WX      TMP DP  RH  WIND    PRES   REMARKS
SUNNYSIDE AP    MOCLDY      55  46  72  CALM    29.87R
YAKIMA AIRPORT  CLOUDY      59  47  64  VRB3    29.87R
#DONALD 2NE     N/A         58  42  55  SW3     28.73R
#GRANDVIEW      N/A         60  44  55  NW3     29.86R
#MABTON         N/A         62  47  58  SW3     29.87R
#NACHES 2SW     N/A         56  46  69  W8      29.88R
#OUTLOOK DOT    N/A         N/A N/A N/A W2      N/A
#SELAH 8E       N/A         48  44  86  SW2     N/A
#TERRACE HTS    N/A         57  46  67  CALM    29.78S
#TOPPENISH      N/A         60  46  60  NW2     29.76S
#WAPATO 4NE     N/A         58  42  55  SW3     28.73R
#WEST VALLEY    N/A         58  45  62  W2      29.80S
#W YAKIMA       N/A         58  46  64  W3      29.82R
#WHITE SWAN 5E  N/A         59  47  64  SW15G26 29.83R
#WILEY CITY 3W  N/A         51  43  74  CALM    29.83S
$$

WAZ028-021210-
LOWER COLUMBIA BASIN...WASHINGTON

CITY            SKY/WX      TMP DP  RH  WIND    PRES   REMARKS
PASCO           CLOUDY      62  49  62  SW16G26 29.88R
#BASIN CITY 5SW N/A         59  50  72  S2      29.85R
#BENTON CITY    N/A         61  47  60  SW8     29.75R
#CONNELL 5N     N/A         56  49  77  W2      29.80R
#CONNELL 5NW    N/A         55  49  80  S7      29.78R
#ELTOPIA        N/A         60  51  72  S1      29.81R
#ELTOPIA 6NW    N/A         57  49  75  S5      28.83R
#KAHLOTUS       N/A         57  49  75  W22G31  29.81S
#KENNEWICK      N/A         49  43  80  W1      27.52S
#KENNEWICK 3S   N/A         58  49  72  S9      29.84R
#PATERSON       N/A         59  51  75  W14G24  29.88R
#PROSSER        N/A         61  43  51  SW2     29.84R
#SAGEMOOR 2W    N/A         60  51  72  S8      29.69R
#TOUCHET 2S     N/A         58  51  77  SW7     29.89R
#WEST PASCO     N/A         62  49  62  SW7     29.85R
$$

WAZ029-021210-
FOOTHILLS OF THE BLUES...WASHINGTON

CITY            SKY/WX      TMP DP  RH  WIND    PRES   REMARKS
WALLA WALLA AP  LGT RAIN    58  52  80  S15     29.94R
#DAYTON SCHOOL  N/A         57  45  64  S7G24   29.93R
#PLEASANT VIEW 1N/A         55  48  77  S14G25  29.85R
#PRESCOTT       N/A         60  52  75  S5      29.86R
#SUDBURY        N/A         59  N/A N/A CALM    N/A
#WHITMAN COLLEGEN/A         58  52  80  S7      29.94R
#WAITSBURG 8N   N/A         56  33  42  S13     29.76R
#WALLA WALLA U  N/A         60  53  78  S2      29.90R
#WHITMAN MISSIONN/A         59  53  80  S6      29.92R
$$

WAZ030-021210-
BLUE MOUNTAINS...WASHINGTON

CITY            SKY/WX      TMP DP  RH  WIND    PRES   REMARKS
#DIXIE 5SE      N/A         50  45  83  S13     29.89S
$$

ORZ009-041-WAZ024-021210-
COLUMBIA RIVER GORGE

CITY            SKY/WX      TMP DP  RH  WIND    PRES   REMARKS
HOOD RIVER AP   CLOUDY      55  48  77  W5      29.99R
THE DALLES AP   MOCLDY      57  47  69  W12     29.97R
#ARLINGTON AIRPON/A         55  46  72  W18     29.82S
#ARLINGTON HS   N/A         58  46  64  NW3     29.84R
#CELILO DOT     N/A         58  47  67  SW6     N/A
#MOSIER 1S      N/A         54  44  69  W6      29.97S
#MURDOCK        N/A         59  51  75  NW14G24 29.97R
#RUFUS DOT      N/A         60  45  58  E1      N/A

$$

ORZ510-021210-
NORTH CENTRAL OREGON

CITY            SKY/WX      TMP DP  RH  WIND    PRES   REMARKS
#CHENOWITH 1W   N/A         48  47  96  NW18    N/A    WCI 41
#COW CYN RST AREN/A         49  N/A N/A SW6     N/A
#DUFUR 9E       N/A         48  45  89  N3      29.98R
#GRASS VALLEY 1SN/A         51  43  74  W16     29.93R
#KENT DOT       N/A         48  40  74  W8      N/A
#MAUPIN SCHOOL  N/A         56  45  66  W5      29.99R
#MORO SCHOOL    N/A         49  48  96  NW2     29.98R
#SHANIKO 5WSW   N/A         48  38  68  SW5     N/A
#SHANIKO 4NW    N/A         47  40  76  W7      29.98S
#TYGH VALLEY 2NEN/A         56  46  69  SW7     29.93S
#WAPANITIA AIRPON/A         49  43  80  W2      29.94R
#WASCO DOT      N/A         53  47  80  SW8     N/A
#WASCO 5NE      N/A         51  45  80  SW3     29.91S
$$

ORZ511-021210-
CENTRAL OREGON

CITY            SKY/WX      TMP DP  RH  WIND    PRES   REMARKS
BEND AIRPORT    PTCLDY      46  45  96  CALM    30.02R
MADRAS AIRPORT  MOCLDY      52  41  66  SW13    30.00S
PRINEVILLE AP   CLOUDY      50  46  86  W7      30.01R
REDMOND AIRPORT CLOUDY      50  45  83  N6      30.01R
#BEND 1SW       N/A         46  44  93  CALM    N/A
#BEND-AWBREY    N/A         47  45  93  CALM    29.94R
#BEND-KIM LN    N/A         47  45  93  CALM    29.98R
#CROOKED RVR RANN/A         48  42  80  W2      29.93R
#LAKE BILLY CHINN/A         52  26  36  SW9     30.07R
#POWELL BUTTE   N/A         49  44  83  NW1     29.64R
#PRINEVILLE 3N  N/A         51  47  86  W2      29.89R
#WARM SPRINGS   N/A         50  45  83  CALM    29.96R

$$


ORZ509-021210-
EAST SLOPES OF OREGON CASCADES

CITY            SKY/WX      TMP DP  RH  WIND    PRES   REMARKS
#BLUE BOX PASS  N/A         42  -9  11  NW3     N/A
#CAMP SHERMAN   N/A         47  41  79  CALM    29.95S
#LA PINE 4NW    N/A         46  43  89  CALM    29.98R
#SISTERS AIRPOR N/A         49  45  86  N5      30.17S
#SISTERS ODOT   N/A         50  N/A N/A S3      N/A
#SISTERS 3N     N/A         49  38  66  CALM    30.01S
#SUNRIVER       N/A         46  44  93  S1      29.83R
#TUMALO 3W      N/A         46  44  93  NE1     29.82R
#WANOGA BUTTE D N/A         39  37  92  W6      N/A

$$

ORZ044-021210-
LOWER COLUMBIA BASIN...OREGON

CITY            SKY/WX      TMP DP  RH  WIND    PRES   REMARKS
HERMISTON       MOCLDY      59  47  64  SW13    29.92R
#BOARDMAN SCHOOLN/A         59  49  69  S12     29.93R
#ECHO 8SW       N/A         58  46  64  W7      29.94R
#IONE SCHOOL    N/A         56  39  53  SW5     29.92R
#IRRIGON 4NW    N/A         60  50  69  S14     N/A
#UMATILLA SCHOOLN/A         57  52  83  S2      29.95R
#UMATILLA       N/A         60  47  62  SW10    29.83R
$$

ORZ507-021210-
NORTHERN FOOTHILLS OF THE BLUES

CITY            SKY/WX      TMP DP  RH  WIND    PRES   REMARKS
PENDLETON AIRPT CLOUDY      55  49  80  W12     29.94S
#ADAMS 3WNW     N/A         53  50  89  SW2     29.90R
#ATHENA         N/A         54  50  86  CALM    29.92R
#CAYUSE         N/A         56  52  86  CALM    29.91R
#HELIX SCHOOL   N/A         53  49  86  SW9     29.88S
#HELIX 3N       N/A         52  49  89  S15     29.91R
#HOLDMAN 5SE    N/A         55  50  83  CALM    29.95R
#HOLDMAN 6E     N/A         54  50  86  N16     29.70R
#M-F FERNDALE   N/A         57  52  83  CALM    29.94R
#M-F GROVE ELEM N/A         56  50  80  CALM    29.93R
#M-FREEWATER 5SEN/A         56  52  86  CALM    29.95R
#PENDLETON DNTN N/A         57  48  72  CALM    29.93S
#PDT AQUATIC CTRN/A         58  46  64  CALM    29.95S
#PDT SUNRIDGE   N/A         55  51  86  CALM    29.96R
#PENDLETON 7NW  N/A         56  49  77  SW7     29.88R
#PILOT ROCK     N/A         56  52  86  CALM    29.97R
#TUTUILLA       N/A         55  52  90  CALM    29.93R
#UMAPINE 2E     N/A         58  53  83  SW2     29.91R
#WESTON SCHOOL  N/A         54  49  83  W3      29.91S

$$

ORZ508-021210-
SOUTHERN FOOTHILLS OF THE BLUES

CITY            SKY/WX      TMP DP  RH  WIND    PRES   REMARKS
#AJAX           N/A         49  40  71  SW2     29.91R
#CONDON 5W      N/A         49  40  71  W17G25  29.94R WCI 43
#FOSSIL SCHOOL  N/A         49  47  93  CALM    29.93S
#HEPPNER EOC    N/A         54  49  83  CALM    29.83R
#HEPPNER 4NE    N/A         51  47  86  W3      29.88R
#LEXINGTON 2SE  N/A         56  50  80  CALM    29.93R
#RUGGS 5NE      N/A         52  47  83  SW7     30.14S
#RUGGS 2SW      N/A         51  45  80  W5      29.91R

$$

ORZ502-503-021210-
BLUE MOUNTAINS

CITY            SKY/WX      TMP DP  RH  WIND    PRES   REMARKS
MEACHAM         LGT RAIN    49  47  93  VRB3    29.98R
#BATTLE MTN DOT N/A         49  48  96  S1      N/A
#HEPPNER 15SE   N/A         48  44  86  W3      29.88R
#LADD CYN SMT   N/A         51  48  89  SW2     N/A
#LONG CREEK HS  N/A         46  46  100 CALM    29.95R
#N POWDER DOT   N/A         53  52  96  NE8     N/A
#PIKES PEAK     N/A         48  46  93  SW21G29 27.99S WCI 41
#TOLLGATE       N/A         43  42  96  SW5     29.92R
#TROY SCHOOL    N/A         56  54  93  CALM    29.73S
#UKIAH          N/A         51  48  89  CALM    29.91S
$$

ORZ505-021210-
JOHN DAY BASIN

CITY            SKY/WX      TMP DP  RH  WIND    PRES   REMARKS
JOHN DAY        CLOUDY      53  49  86  S6      30.00R
#JOHN DAY KJDY  N/A         55  53  93  CALM    29.88F
#DAYVILLE SCHOOLN/A         57  51  80  W1      29.95S
#MONUMENT HS    N/A         57  50  77  S1      29.97S
#MT. VERNON 5SE N/A         50  47  89  CALM    29.95S
$$

ORZ506-021210-
OCHOCO AND JOHN DAY HIGHLANDS

CITY            SKY/WX      TMP DP  RH  WIND    PRES   REMARKS
#BUCK CREEK DOT N/A         50  50  100 SW10    N/A
#HORSE RIDGE DO N/A         41  40  96  SE3     N/A
#KEYES SMT DOT  N/A         48  46  93  NW3     N/A
#PAULINA SCHOOL N/A         50  46  86  CALM    29.98R
#PINE MTN OBS   N/A         40  39  96  S9      N/A
#PRAIRIE CITY   N/A         51  50  96  CALM    29.98S
#SENECA         N/A         49  N/A N/A SW1     N/A
#SENECA 9NW     N/A         46  45  96  CALM    29.85R
$$

ORZ049-021210-
GRANDE RONDE VALLEY

CITY            SKY/WX      TMP DP  RH  WIND    PRES   REMARKS
LA GRANDE       MOCLDY      54  45  71  E5      29.96R
#ELGIN 3N       N/A         53  52  96  CALM    29.94R
#ELGIN 1E       N/A         54  49  83  CALM    N/A
#ISLAND CITY 4N N/A         53  52  96  CALM    30.01R
#LADD CYN DOT   N/A         54  52  93  NE2     N/A
#LA GRANDE ELEM N/A         53  50  89  CALM    29.98R
#UNION 1S       N/A         53  51  93  CALM    29.78R
$$

ORZ050-021210-
WALLOWA COUNTY

CITY            SKY/WX      TMP DP  RH  WIND    PRES   REMARKS
JOSEPH AIRPORT  N/A         50  50  100 CALM    29.97S
#ENTERPRISE HS  N/A         50  48  93  CALM    29.98R
#IMNAHA SCHOOL  N/A         57  56  96  CALM    29.93R
#IMNAHA 10S     N/A         53  51  93  S1      29.94R
#JOSEPH 3N      N/A         49  44  83  N3      29.98S
#JOSEPH 3W      N/A         48  48  100 CALM    29.83R
#LOSTINE        N/A         50  49  96  CALM    29.66R
#MT HOWARD 8000 N/A         38  37  96  CALM    30.03S
#PROMISE 1S     N/A         49  47  93  SE2     29.95R
#WALLOWA SCHOOL N/A         51  50  96  CALM    30.76R



$$



USA.gov is the U.S. government's official web portal to all federal, state and local government web resources and services.